Year,Month,Day,Hour,Minute,Value (Times are PST for insolation in W/m^2)
2007,07,30,00,00,0.00
2007,07,30,00,01,0.00
2007,07,30,00,02,0.00
2007,07,30,00,03,0.00
2007,07,30,00,04,0.00
2007,07,30,00,05,0.00
2007,07,30,00,06,0.00
2007,07,30,00,07,0.00
2007,07,30,00,08,0.00
2007,07,30,00,09,0.00
2007,07,30,00,10,0.00
2007,07,30,00,11,0.00
2007,07,30,00,12,0.00
2007,07,30,00,13,0.00
2007,07,30,00,14,0.00
2007,07,30,00,15,0.00
2007,07,30,00,16,0.00
2007,07,30,00,17,0.00
2007,07,30,00,18,0.00
2007,07,30,00,19,0.00
2007,07,30,00,20,0.00
2007,07,30,00,21,0.00
2007,07,30,00,22,0.00
2007,07,30,00,23,0.00
2007,07,30,00,24,0.00
2007,07,30,00,25,0.00
2007,07,30,00,26,0.00
2007,07,30,00,27,0.00
2007,07,30,00,28,0.00
2007,07,30,00,29,0.00
2007,07,30,00,30,0.00
2007,07,30,00,31,0.00
2007,07,30,00,32,0.00
2007,07,30,00,33,0.00
2007,07,30,00,34,0.00
2007,07,30,00,35,0.00
2007,07,30,00,36,0.00
2007,07,30,00,37,0.00
2007,07,30,00,38,0.00
2007,07,30,00,39,0.00
2007,07,30,00,40,0.00
2007,07,30,00,41,0.00
2007,07,30,00,42,0.00
2007,07,30,00,43,0.00
2007,07,30,00,44,0.00
2007,07,30,00,45,0.00
2007,07,30,00,46,0.00
2007,07,30,00,47,0.00
2007,07,30,00,48,0.00
2007,07,30,00,49,0.00
2007,07,30,00,50,0.00
2007,07,30,00,51,0.00
2007,07,30,00,52,0.00
2007,07,30,00,53,0.00
2007,07,30,00,54,0.00
2007,07,30,00,55,0.00
2007,07,30,00,56,0.00
2007,07,30,00,57,0.00
2007,07,30,00,58,0.00
2007,07,30,00,59,0.00
2007,07,30,01,00,0.00
2007,07,30,01,01,0.00
2007,07,30,01,02,0.00
2007,07,30,01,03,0.00
2007,07,30,01,04,0.00
2007,07,30,01,05,0.00
2007,07,30,01,06,0.00
2007,07,30,01,07,0.00
2007,07,30,01,08,0.00
2007,07,30,01,09,0.00
2007,07,30,01,10,0.00
2007,07,30,01,11,0.00
2007,07,30,01,12,0.00
2007,07,30,01,13,0.00
2007,07,30,01,14,0.00
2007,07,30,01,15,0.00
2007,07,30,01,16,0.00
2007,07,30,01,17,0.00
2007,07,30,01,18,0.00
2007,07,30,01,19,0.00
2007,07,30,01,20,0.00
2007,07,30,01,21,0.00
2007,07,30,01,22,0.00
2007,07,30,01,23,0.00
2007,07,30,01,24,0.00
2007,07,30,01,25,0.00
2007,07,30,01,26,0.00
2007,07,30,01,27,0.00
2007,07,30,01,28,0.00
2007,07,30,01,29,0.00
2007,07,30,01,30,0.00
2007,07,30,01,31,0.00
2007,07,30,01,32,0.00
2007,07,30,01,33,0.00
2007,07,30,01,34,0.00
2007,07,30,01,35,0.00
2007,07,30,01,36,0.00
2007,07,30,01,37,0.00
2007,07,30,01,38,0.00
2007,07,30,01,39,0.00
2007,07,30,01,40,0.00
2007,07,30,01,41,0.00
2007,07,30,01,42,0.00
2007,07,30,01,43,0.00
2007,07,30,01,44,0.00
2007,07,30,01,45,0.00
2007,07,30,01,46,0.00
2007,07,30,01,47,0.00
2007,07,30,01,48,0.00
2007,07,30,01,49,0.00
2007,07,30,01,50,0.00
2007,07,30,01,51,0.00
2007,07,30,01,52,0.00
2007,07,30,01,53,0.00
2007,07,30,01,54,0.00
2007,07,30,01,55,0.00
2007,07,30,01,56,0.00
2007,07,30,01,57,0.00
2007,07,30,01,58,0.00
2007,07,30,01,59,0.00
2007,07,30,02,00,0.00
2007,07,30,02,01,0.00
2007,07,30,02,02,0.00
2007,07,30,02,03,0.00
2007,07,30,02,04,0.00
2007,07,30,02,05,0.00
2007,07,30,02,06,0.00
2007,07,30,02,07,0.00
2007,07,30,02,08,0.00
2007,07,30,02,09,0.00
2007,07,30,02,10,0.00
2007,07,30,02,11,0.00
2007,07,30,02,12,0.00
2007,07,30,02,13,0.00
2007,07,30,02,14,0.00
2007,07,30,02,15,0.00
2007,07,30,02,16,0.00
2007,07,30,02,17,0.00
2007,07,30,02,18,0.00
2007,07,30,02,19,0.00
2007,07,30,02,20,0.00
2007,07,30,02,21,0.00
2007,07,30,02,22,0.00
2007,07,30,02,23,0.00
2007,07,30,02,24,0.00
2007,07,30,02,25,0.00
2007,07,30,02,26,0.00
2007,07,30,02,27,0.00
2007,07,30,02,28,0.00
2007,07,30,02,29,0.00
2007,07,30,02,30,0.00
2007,07,30,02,31,0.00
2007,07,30,02,32,0.00
2007,07,30,02,33,0.00
2007,07,30,02,34,0.00
2007,07,30,02,35,0.00
2007,07,30,02,36,0.00
2007,07,30,02,37,0.00
2007,07,30,02,38,0.00
2007,07,30,02,39,0.00
2007,07,30,02,40,0.00
2007,07,30,02,41,0.00
2007,07,30,02,42,0.00
2007,07,30,02,43,0.00
2007,07,30,02,44,0.00
2007,07,30,02,45,0.00
2007,07,30,02,46,0.00
2007,07,30,02,47,0.00
2007,07,30,02,48,0.00
2007,07,30,02,49,0.00
2007,07,30,02,50,0.00
2007,07,30,02,51,0.00
2007,07,30,02,52,0.00
2007,07,30,02,53,0.00
2007,07,30,02,54,0.00
2007,07,30,02,55,0.00
2007,07,30,02,56,0.00
2007,07,30,02,57,0.00
2007,07,30,02,58,0.00
2007,07,30,02,59,0.00
2007,07,30,03,00,0.00
2007,07,30,03,01,0.00
2007,07,30,03,02,0.00
2007,07,30,03,03,0.00
2007,07,30,03,04,0.00
2007,07,30,03,05,0.00
2007,07,30,03,06,0.00
2007,07,30,03,07,0.00
2007,07,30,03,08,0.00
2007,07,30,03,09,0.00
2007,07,30,03,10,0.00
2007,07,30,03,11,0.00
2007,07,30,03,12,0.00
2007,07,30,03,13,0.00
2007,07,30,03,14,0.00
2007,07,30,03,15,0.00
2007,07,30,03,16,0.00
2007,07,30,03,17,0.00
2007,07,30,03,18,0.00
2007,07,30,03,19,0.00
2007,07,30,03,20,0.00
2007,07,30,03,21,0.00
2007,07,30,03,22,0.00
2007,07,30,03,23,0.00
2007,07,30,03,24,0.00
2007,07,30,03,25,0.00
2007,07,30,03,26,0.00
2007,07,30,03,27,0.00
2007,07,30,03,28,0.00
2007,07,30,03,29,0.00
2007,07,30,03,30,0.00
2007,07,30,03,31,0.00
2007,07,30,03,32,0.00
2007,07,30,03,33,0.00
2007,07,30,03,34,0.00
2007,07,30,03,35,0.00
2007,07,30,03,36,0.00
2007,07,30,03,37,0.00
2007,07,30,03,38,0.00
2007,07,30,03,39,0.00
2007,07,30,03,40,0.00
2007,07,30,03,41,0.00
2007,07,30,03,42,0.00
2007,07,30,03,43,0.00
2007,07,30,03,44,0.00
2007,07,30,03,45,0.00
2007,07,30,03,46,0.00
2007,07,30,03,47,0.00
2007,07,30,03,48,0.00
2007,07,30,03,49,0.00
2007,07,30,03,50,0.00
2007,07,30,03,51,0.00
2007,07,30,03,52,0.00
2007,07,30,03,53,0.00
2007,07,30,03,54,0.00
2007,07,30,03,55,0.00
2007,07,30,03,56,0.00
2007,07,30,03,57,0.00
2007,07,30,03,58,0.00
2007,07,30,03,59,0.00
2007,07,30,04,00,0.00
2007,07,30,04,01,0.00
2007,07,30,04,02,0.00
2007,07,30,04,03,0.00
2007,07,30,04,04,0.00
2007,07,30,04,05,0.00
2007,07,30,04,06,0.00
2007,07,30,04,07,0.00
2007,07,30,04,08,0.00
2007,07,30,04,09,0.00
2007,07,30,04,10,0.00
2007,07,30,04,11,0.00
2007,07,30,04,12,0.00
2007,07,30,04,13,0.00
2007,07,30,04,14,0.00
2007,07,30,04,15,0.00
2007,07,30,04,16,0.00
2007,07,30,04,17,0.00
2007,07,30,04,18,0.00
2007,07,30,04,19,0.00
2007,07,30,04,20,0.00
2007,07,30,04,21,0.00
2007,07,30,04,22,0.00
2007,07,30,04,23,0.00
2007,07,30,04,24,0.00
2007,07,30,04,25,0.00
2007,07,30,04,26,0.00
2007,07,30,04,27,0.00
2007,07,30,04,28,0.00
2007,07,30,04,29,0.00
2007,07,30,04,30,0.00
2007,07,30,04,31,0.00
2007,07,30,04,32,0.00
2007,07,30,04,33,0.00
2007,07,30,04,34,0.00
2007,07,30,04,35,0.00
2007,07,30,04,36,0.00
2007,07,30,04,37,0.00
2007,07,30,04,38,0.00
2007,07,30,04,39,0.00
2007,07,30,04,40,0.00
2007,07,30,04,41,0.00
2007,07,30,04,42,0.00
2007,07,30,04,43,0.00
2007,07,30,04,44,0.00
2007,07,30,04,45,0.00
2007,07,30,04,46,0.00
2007,07,30,04,47,0.00
2007,07,30,04,48,0.00
2007,07,30,04,49,0.00
2007,07,30,04,50,0.00
2007,07,30,04,51,0.00
2007,07,30,04,52,0.00
2007,07,30,04,53,0.00
2007,07,30,04,54,0.00
2007,07,30,04,55,0.00
2007,07,30,04,56,0.00
2007,07,30,04,57,0.00
2007,07,30,04,58,0.00
2007,07,30,04,59,0.00
2007,07,30,05,00,0.00
2007,07,30,05,01,0.00
2007,07,30,05,02,0.00
2007,07,30,05,03,0.00
2007,07,30,05,04,0.00
2007,07,30,05,05,0.00
2007,07,30,05,06,0.00
2007,07,30,05,07,0.00
2007,07,30,05,08,0.00
2007,07,30,05,09,0.00
2007,07,30,05,10,0.00
2007,07,30,05,11,0.00
2007,07,30,05,12,0.00
2007,07,30,05,13,0.00
2007,07,30,05,14,0.00
2007,07,30,05,15,0.00
2007,07,30,05,16,0.00
2007,07,30,05,17,0.00
2007,07,30,05,18,0.00
2007,07,30,05,19,0.00
2007,07,30,05,20,0.00
2007,07,30,05,21,0.00
2007,07,30,05,22,0.00
2007,07,30,05,23,0.00
2007,07,30,05,24,0.00
2007,07,30,05,25,0.00
2007,07,30,05,26,0.00
2007,07,30,05,27,0.00
2007,07,30,05,28,0.00
2007,07,30,05,29,0.00
2007,07,30,05,30,0.00
2007,07,30,05,31,0.00
2007,07,30,05,32,0.00
2007,07,30,05,33,0.00
2007,07,30,05,34,0.00
2007,07,30,05,35,0.00
2007,07,30,05,36,0.00
2007,07,30,05,37,0.00
2007,07,30,05,38,0.00
2007,07,30,05,39,0.00
2007,07,30,05,40,0.00
2007,07,30,05,41,0.00
2007,07,30,05,42,0.00
2007,07,30,05,43,0.00
2007,07,30,05,44,0.00
2007,07,30,05,45,0.00
2007,07,30,05,46,0.00
2007,07,30,05,47,0.00
2007,07,30,05,48,0.00
2007,07,30,05,49,0.00
2007,07,30,05,50,0.00
2007,07,30,05,51,0.00
2007,07,30,05,52,0.00
2007,07,30,05,53,3.90
2007,07,30,05,54,5.00
2007,07,30,05,55,5.00
2007,07,30,05,56,5.00
2007,07,30,05,57,5.00
2007,07,30,05,58,5.00
2007,07,30,05,59,6.00
2007,07,30,06,00,7.00
2007,07,30,06,01,7.00
2007,07,30,06,02,7.00
2007,07,30,06,03,7.00
2007,07,30,06,04,7.00
2007,07,30,06,05,7.30
2007,07,30,06,06,9.00
2007,07,30,06,07,9.00
2007,07,30,06,08,9.00
2007,07,30,06,09,9.00
2007,07,30,06,10,9.00
2007,07,30,06,11,9.00
2007,07,30,06,12,10.80
2007,07,30,06,13,11.00
2007,07,30,06,14,11.00
2007,07,30,06,15,11.00
2007,07,30,06,16,11.00
2007,07,30,06,17,11.60
2007,07,30,06,18,12.00
2007,07,30,06,19,12.00
2007,07,30,06,20,12.00
2007,07,30,06,21,12.00
2007,07,30,06,22,12.00
2007,07,30,06,23,12.00
2007,07,30,06,24,12.70
2007,07,30,06,25,14.00
2007,07,30,06,26,14.00
2007,07,30,06,27,14.00
2007,07,30,06,28,14.00
2007,07,30,06,29,14.00
2007,07,30,06,30,14.10
2007,07,30,06,31,16.00
2007,07,30,06,32,16.00
2007,07,30,06,33,16.00
2007,07,30,06,34,16.00
2007,07,30,06,35,16.00
2007,07,30,06,36,16.00
2007,07,30,06,37,16.00
2007,07,30,06,38,18.00
2007,07,30,06,39,18.00
2007,07,30,06,40,18.00
2007,07,30,06,41,18.00
2007,07,30,06,42,18.00
2007,07,30,06,43,18.00
2007,07,30,06,44,18.00
2007,07,30,06,45,18.80
2007,07,30,06,46,19.00
2007,07,30,06,47,19.00
2007,07,30,06,48,19.00
2007,07,30,06,49,19.00
2007,07,30,06,50,19.00
2007,07,30,06,51,19.00
2007,07,30,06,52,19.00
2007,07,30,06,53,20.50
2007,07,30,06,54,21.00
2007,07,30,06,55,21.00
2007,07,30,06,56,21.00
2007,07,30,06,57,21.00
2007,07,30,06,58,21.00
2007,07,30,06,59,21.00
2007,07,30,07,00,21.00
2007,07,30,07,01,21.00
2007,07,30,07,02,22.80
2007,07,30,07,03,23.00
2007,07,30,07,04,23.00
2007,07,30,07,05,23.00
2007,07,30,07,06,23.00
2007,07,30,07,07,23.00
2007,07,30,07,08,23.00
2007,07,30,07,09,23.00
2007,07,30,07,10,23.00
2007,07,30,07,11,24.70
2007,07,30,07,12,25.00
2007,07,30,07,13,25.00
2007,07,30,07,14,25.00
2007,07,30,07,15,25.00
2007,07,30,07,16,25.00
2007,07,30,07,17,25.00
2007,07,30,07,18,25.00
2007,07,30,07,19,25.00
2007,07,30,07,20,25.00
2007,07,30,07,21,25.00
2007,07,30,07,22,25.20
2007,07,30,07,23,26.00
2007,07,30,07,24,26.00
2007,07,30,07,25,26.00
2007,07,30,07,26,26.00
2007,07,30,07,27,26.00
2007,07,30,07,28,26.00
2007,07,30,07,29,26.00
2007,07,30,07,30,26.00
2007,07,30,07,31,26.00
2007,07,30,07,32,26.00
2007,07,30,07,33,26.00
2007,07,30,07,34,26.00
2007,07,30,07,35,26.00
2007,07,30,07,36,26.00
2007,07,30,07,37,27.80
2007,07,30,07,38,28.00
2007,07,30,07,39,28.00
2007,07,30,07,40,28.00
2007,07,30,07,41,28.00
2007,07,30,07,42,28.90
2007,07,30,07,43,30.00
2007,07,30,07,44,30.00
2007,07,30,07,45,28.60
2007,07,30,07,46,28.00
2007,07,30,07,47,28.00
2007,07,30,07,48,28.00
2007,07,30,07,49,28.60
2007,07,30,07,50,30.00
2007,07,30,07,51,31.40
2007,07,30,07,52,34.20
2007,07,30,07,53,33.70
2007,07,30,07,54,32.20
2007,07,30,07,55,30.30
2007,07,30,07,56,30.00
2007,07,30,07,57,30.00
2007,07,30,07,58,30.00
2007,07,30,07,59,30.00
2007,07,30,08,00,31.20
2007,07,30,08,01,32.70
2007,07,30,08,02,30.90
2007,07,30,08,03,30.00
2007,07,30,08,04,30.00
2007,07,30,08,05,30.00
2007,07,30,08,06,30.40
2007,07,30,08,07,32.00
2007,07,30,08,08,32.00
2007,07,30,08,09,32.00
2007,07,30,08,10,32.00
2007,07,30,08,11,32.00
2007,07,30,08,12,32.00
2007,07,30,08,13,32.00
2007,07,30,08,14,32.00
2007,07,30,08,15,32.00
2007,07,30,08,16,32.00
2007,07,30,08,17,32.00
2007,07,30,08,18,32.00
2007,07,30,08,19,32.00
2007,07,30,08,20,32.00
2007,07,30,08,21,32.00
2007,07,30,08,22,34.40
2007,07,30,08,23,48.80
2007,07,30,08,24,53.00
2007,07,30,08,25,37.40
2007,07,30,08,26,36.00
2007,07,30,08,27,37.00
2007,07,30,08,28,33.90
2007,07,30,08,29,41.50
2007,07,30,08,30,52.00
2007,07,30,08,31,34.70
2007,07,30,08,32,33.00
2007,07,30,08,33,33.00
2007,07,30,08,34,33.00
2007,07,30,08,35,33.00
2007,07,30,08,36,33.00
2007,07,30,08,37,33.00
2007,07,30,08,38,33.00
2007,07,30,08,39,33.00
2007,07,30,08,40,33.00
2007,07,30,08,41,33.60
2007,07,30,08,42,37.20
2007,07,30,08,43,43.30
2007,07,30,08,44,46.60
2007,07,30,08,45,42.00
2007,07,30,08,46,35.60
2007,07,30,08,47,35.00
2007,07,30,08,48,35.00
2007,07,30,08,49,35.00
2007,07,30,08,50,35.00
2007,07,30,08,51,35.00
2007,07,30,08,52,35.00
2007,07,30,08,53,35.00
2007,07,30,08,54,35.00
2007,07,30,08,55,35.00
2007,07,30,08,56,36.90
2007,07,30,08,57,35.00
2007,07,30,08,58,38.50
2007,07,30,08,59,53.40
2007,07,30,09,00,52.00
2007,07,30,09,01,53.60
2007,07,30,09,02,55.10
2007,07,30,09,03,53.00
2007,07,30,09,04,42.00
2007,07,30,09,05,52.90
2007,07,30,09,06,76.20
2007,07,30,09,07,42.70
2007,07,30,09,08,42.10
2007,07,30,09,09,38.30
2007,07,30,09,10,38.40
2007,07,30,09,11,44.60
2007,07,30,09,12,97.70
2007,07,30,09,13,153.10
2007,07,30,09,14,163.50
2007,07,30,09,15,121.70
2007,07,30,09,16,73.60
2007,07,30,09,17,43.20
2007,07,30,09,18,45.30
2007,07,30,09,19,41.40
2007,07,30,09,20,40.00
2007,07,30,09,21,39.10
2007,07,30,09,22,39.00
2007,07,30,09,23,39.00
2007,07,30,09,24,42.60
2007,07,30,09,25,68.50
2007,07,30,09,26,102.60
2007,07,30,09,27,138.80
2007,07,30,09,28,125.80
2007,07,30,09,29,120.00
2007,07,30,09,30,209.00
2007,07,30,09,31,288.00
2007,07,30,09,32,315.80
2007,07,30,09,33,425.50
2007,07,30,09,34,422.00
2007,07,30,09,35,325.40
2007,07,30,09,36,269.00
2007,07,30,09,37,269.00
2007,07,30,09,38,62.50
2007,07,30,09,39,40.10
2007,07,30,09,40,43.00
2007,07,30,09,41,55.30
2007,07,30,09,42,72.00
2007,07,30,09,43,168.30
2007,07,30,09,44,225.70
2007,07,30,09,45,169.30
2007,07,30,09,46,110.10
2007,07,30,09,47,135.00
2007,07,30,09,48,142.00
2007,07,30,09,49,142.00
2007,07,30,09,50,131.00
2007,07,30,09,51,108.20
2007,07,30,09,52,114.00
2007,07,30,09,53,157.30
2007,07,30,09,54,152.20
2007,07,30,09,55,152.20
2007,07,30,09,56,153.00
2007,07,30,09,57,509.20
2007,07,30,09,58,585.20
2007,07,30,09,59,589.00
2007,07,30,10,00,589.00
2007,07,30,10,01,592.10
2007,07,30,10,02,595.60
2007,07,30,10,03,597.70
2007,07,30,10,04,601.00
2007,07,30,10,05,603.00
2007,07,30,10,06,603.80
2007,07,30,10,07,608.50
2007,07,30,10,08,610.00
2007,07,30,10,09,611.10
2007,07,30,10,10,614.10
2007,07,30,10,11,616.60
2007,07,30,10,12,618.80
2007,07,30,10,13,622.10
2007,07,30,10,14,624.00
2007,07,30,10,15,624.40
2007,07,30,10,16,627.00
2007,07,30,10,17,629.90
2007,07,30,10,18,632.20
2007,07,30,10,19,634.40
2007,07,30,10,20,635.80
2007,07,30,10,21,639.80
2007,07,30,10,22,642.10
2007,07,30,10,23,643.30
2007,07,30,10,24,645.50
2007,07,30,10,25,647.80
2007,07,30,10,26,649.50
2007,07,30,10,27,650.00
2007,07,30,10,28,654.20
2007,07,30,10,29,656.80
2007,07,30,10,30,657.00
2007,07,30,10,31,659.20
2007,07,30,10,32,661.40
2007,07,30,10,33,663.00
2007,07,30,10,34,665.20
2007,07,30,10,35,668.00
2007,07,30,10,36,669.80
2007,07,30,10,37,672.50
2007,07,30,10,38,674.90
2007,07,30,10,39,676.80
2007,07,30,10,40,677.50
2007,07,30,10,41,680.60
2007,07,30,10,42,682.00
2007,07,30,10,43,684.00
2007,07,30,10,44,686.60
2007,07,30,10,45,688.50
2007,07,30,10,46,690.70
2007,07,30,10,47,691.00
2007,07,30,10,48,694.00
2007,07,30,10,49,696.00
2007,07,30,10,50,696.70
2007,07,30,10,51,698.00
2007,07,30,10,52,699.70
2007,07,30,10,53,701.00
2007,07,30,10,54,703.80
2007,07,30,10,55,706.60
2007,07,30,10,56,708.00
2007,07,30,10,57,710.20
2007,07,30,10,58,712.50
2007,07,30,10,59,714.40
2007,07,30,11,00,715.90
2007,07,30,11,01,718.20
2007,07,30,11,02,720.20
2007,07,30,11,03,721.00
2007,07,30,11,04,723.50
2007,07,30,11,05,726.10
2007,07,30,11,06,728.20
2007,07,30,11,07,729.60
2007,07,30,11,08,731.00
2007,07,30,11,09,732.00
2007,07,30,11,10,733.00
2007,07,30,11,11,734.40
2007,07,30,11,12,740.20
2007,07,30,11,13,740.20
2007,07,30,11,14,740.40
2007,07,30,11,15,743.60
2007,07,30,11,16,742.70
2007,07,30,11,17,745.40
2007,07,30,11,18,747.00
2007,07,30,11,19,749.70
2007,07,30,11,20,749.40
2007,07,30,11,21,751.40
2007,07,30,11,22,754.00
2007,07,30,11,23,754.30
2007,07,30,11,24,756.00
2007,07,30,11,25,757.90
2007,07,30,11,26,761.00
2007,07,30,11,27,761.00
2007,07,30,11,28,762.40
2007,07,30,11,29,763.00
2007,07,30,11,30,765.80
2007,07,30,11,31,768.20
2007,07,30,11,32,770.40
2007,07,30,11,33,772.00
2007,07,30,11,34,772.00
2007,07,30,11,35,772.50
2007,07,30,11,36,774.20
2007,07,30,11,37,775.00
2007,07,30,11,38,775.00
2007,07,30,11,39,779.50
2007,07,30,11,40,780.00
2007,07,30,11,41,780.60
2007,07,30,11,42,782.00
2007,07,30,11,43,783.80
2007,07,30,11,44,787.10
2007,07,30,11,45,788.00
2007,07,30,11,46,788.80
2007,07,30,11,47,790.70
2007,07,30,11,48,793.00
2007,07,30,11,49,792.70
2007,07,30,11,50,792.60
2007,07,30,11,51,798.90
2007,07,30,11,52,804.10
2007,07,30,11,53,800.70
2007,07,30,11,54,799.30
2007,07,30,11,55,801.70
2007,07,30,11,56,800.20
2007,07,30,11,57,798.40
2007,07,30,11,58,802.20
2007,07,30,11,59,803.60
2007,07,30,12,00,805.00
2007,07,30,12,01,806.20
2007,07,30,12,02,808.50
2007,07,30,12,03,809.80
2007,07,30,12,04,809.10
2007,07,30,12,05,810.00
2007,07,30,12,06,812.00
2007,07,30,12,07,812.60
2007,07,30,12,08,813.20
2007,07,30,12,09,813.80
2007,07,30,12,10,816.60
2007,07,30,12,11,817.00
2007,07,30,12,12,816.20
2007,07,30,12,13,816.00
2007,07,30,12,14,816.50
2007,07,30,12,15,820.70
2007,07,30,12,16,819.60
2007,07,30,12,17,821.00
2007,07,30,12,18,821.00
2007,07,30,12,19,822.80
2007,07,30,12,20,824.00
2007,07,30,12,21,825.80
2007,07,30,12,22,828.00
2007,07,30,12,23,828.00
2007,07,30,12,24,828.00
2007,07,30,12,25,828.70
2007,07,30,12,26,830.50
2007,07,30,12,27,830.40
2007,07,30,12,28,830.70
2007,07,30,12,29,830.20
2007,07,30,12,30,830.90
2007,07,30,12,31,834.70
2007,07,30,12,32,833.30
2007,07,30,12,33,835.00
2007,07,30,12,34,835.00
2007,07,30,12,35,835.00
2007,07,30,12,36,836.20
2007,07,30,12,37,837.00
2007,07,30,12,38,839.70
2007,07,30,12,39,840.00
2007,07,30,12,40,839.80
2007,07,30,12,41,838.40
2007,07,30,12,42,840.70
2007,07,30,12,43,840.40
2007,07,30,12,44,839.00
2007,07,30,12,45,840.00
2007,07,30,12,46,841.60
2007,07,30,12,47,843.80
2007,07,30,12,48,844.00
2007,07,30,12,49,844.00
2007,07,30,12,50,844.00
2007,07,30,12,51,844.80
2007,07,30,12,52,845.10
2007,07,30,12,53,847.10
2007,07,30,12,54,847.00
2007,07,30,12,55,846.00
2007,07,30,12,56,846.90
2007,07,30,12,57,846.10
2007,07,30,12,58,847.00
2007,07,30,12,59,847.00
2007,07,30,13,00,846.60
2007,07,30,13,01,846.00
2007,07,30,13,02,846.60
2007,07,30,13,03,847.00
2007,07,30,13,04,848.80
2007,07,30,13,05,847.00
2007,07,30,13,06,849.00
2007,07,30,13,07,849.00
2007,07,30,13,08,850.30
2007,07,30,13,09,853.00
2007,07,30,13,10,851.80
2007,07,30,13,11,853.20
2007,07,30,13,12,853.20
2007,07,30,13,13,851.10
2007,07,30,13,14,851.00
2007,07,30,13,15,851.00
2007,07,30,13,16,851.00
2007,07,30,13,17,851.00
2007,07,30,13,18,852.70
2007,07,30,13,19,853.40
2007,07,30,13,20,853.70
2007,07,30,13,21,854.00
2007,07,30,13,22,855.80
2007,07,30,13,23,854.40
2007,07,30,13,24,858.00
2007,07,30,13,25,858.70
2007,07,30,13,26,860.00
2007,07,30,13,27,860.60
2007,07,30,13,28,856.00
2007,07,30,13,29,830.40
2007,07,30,13,30,841.80
2007,07,30,13,31,843.80
2007,07,30,13,32,835.60
2007,07,30,13,33,827.20
2007,07,30,13,34,860.00
2007,07,30,13,35,860.00
2007,07,30,13,36,865.10
2007,07,30,13,37,857.70
2007,07,30,13,38,855.70
2007,07,30,13,39,854.10
2007,07,30,13,40,852.90
2007,07,30,13,41,851.40
2007,07,30,13,42,852.40
2007,07,30,13,43,851.80
2007,07,30,13,44,855.80
2007,07,30,13,45,855.80
2007,07,30,13,46,850.50
2007,07,30,13,47,849.00
2007,07,30,13,48,847.00
2007,07,30,13,49,847.30
2007,07,30,13,50,849.00
2007,07,30,13,51,849.00
2007,07,30,13,52,849.90
2007,07,30,13,53,849.80
2007,07,30,13,54,849.00
2007,07,30,13,55,849.00
2007,07,30,13,56,849.00
2007,07,30,13,57,848.90
2007,07,30,13,58,847.90
2007,07,30,13,59,851.90
2007,07,30,14,00,847.80
2007,07,30,14,01,846.00
2007,07,30,14,02,846.00
2007,07,30,14,03,846.00
2007,07,30,14,04,846.90
2007,07,30,14,05,846.10
2007,07,30,14,06,846.80
2007,07,30,14,07,845.10
2007,07,30,14,08,842.70
2007,07,30,14,09,843.10
2007,07,30,14,10,842.00
2007,07,30,14,11,840.70
2007,07,30,14,12,840.00
2007,07,30,14,13,838.20
2007,07,30,14,14,838.00
2007,07,30,14,15,838.00
2007,07,30,14,16,837.80
2007,07,30,14,17,837.00
2007,07,30,14,18,837.00
2007,07,30,14,19,837.00
2007,07,30,14,20,835.40
2007,07,30,14,21,835.00
2007,07,30,14,22,833.30
2007,07,30,14,23,834.80
2007,07,30,14,24,833.00
2007,07,30,14,25,832.30
2007,07,30,14,26,831.00
2007,07,30,14,27,831.00
2007,07,30,14,28,831.00
2007,07,30,14,29,830.20
2007,07,30,14,30,830.00
2007,07,30,14,31,828.00
2007,07,30,14,32,829.30
2007,07,30,14,33,826.00
2007,07,30,14,34,825.20
2007,07,30,14,35,824.00
2007,07,30,14,36,825.20
2007,07,30,14,37,824.00
2007,07,30,14,38,823.00
2007,07,30,14,39,821.10
2007,07,30,14,40,821.10
2007,07,30,14,41,822.70
2007,07,30,14,42,820.40
2007,07,30,14,43,818.10
2007,07,30,14,44,817.00
2007,07,30,14,45,818.30
2007,07,30,14,46,816.80
2007,07,30,14,47,816.00
2007,07,30,14,48,814.20
2007,07,30,14,49,813.60
2007,07,30,14,50,810.00
2007,07,30,14,51,810.00
2007,07,30,14,52,809.60
2007,07,30,14,53,809.60
2007,07,30,14,54,808.00
2007,07,30,14,55,805.40
2007,07,30,14,56,805.00
2007,07,30,14,57,803.00
2007,07,30,14,58,802.80
2007,07,30,14,59,802.00
2007,07,30,15,00,801.20
2007,07,30,15,01,800.00
2007,07,30,15,02,798.70
2007,07,30,15,03,798.00
2007,07,30,15,04,796.20
2007,07,30,15,05,796.00
2007,07,30,15,06,795.00
2007,07,30,15,07,794.10
2007,07,30,15,08,790.00
2007,07,30,15,09,787.20
2007,07,30,15,10,787.10
2007,07,30,15,11,786.60
2007,07,30,15,12,784.40
2007,07,30,15,13,784.00
2007,07,30,15,14,784.00
2007,07,30,15,15,783.70
2007,07,30,15,16,781.20
2007,07,30,15,17,778.20
2007,07,30,15,18,777.00
2007,07,30,15,19,777.00
2007,07,30,15,20,774.10
2007,07,30,15,21,773.00
2007,07,30,15,22,773.00
2007,07,30,15,23,766.40
2007,07,30,15,24,769.30
2007,07,30,15,25,765.70
2007,07,30,15,26,765.00
2007,07,30,15,27,765.00
2007,07,30,15,28,763.90
2007,07,30,15,29,763.00
2007,07,30,15,30,760.00
2007,07,30,15,31,759.00
2007,07,30,15,32,756.00
2007,07,30,15,33,756.00
2007,07,30,15,34,754.30
2007,07,30,15,35,751.00
2007,07,30,15,36,749.90
2007,07,30,15,37,746.30
2007,07,30,15,38,745.00
2007,07,30,15,39,744.10
2007,07,30,15,40,745.10
2007,07,30,15,41,747.00
2007,07,30,15,42,745.80
2007,07,30,15,43,741.20
2007,07,30,15,44,739.10
2007,07,30,15,45,736.30
2007,07,30,15,46,735.00
2007,07,30,15,47,733.30
2007,07,30,15,48,731.30
2007,07,30,15,49,727.80
2007,07,30,15,50,726.00
2007,07,30,15,51,724.50
2007,07,30,15,52,721.00
2007,07,30,15,53,721.00
2007,07,30,15,54,718.60
2007,07,30,15,55,718.60
2007,07,30,15,56,715.00
2007,07,30,15,57,712.00
2007,07,30,15,58,708.30
2007,07,30,15,59,709.40
2007,07,30,16,00,708.00
2007,07,30,16,01,707.50
2007,07,30,16,02,705.70
2007,07,30,16,03,703.70
2007,07,30,16,04,700.50
2007,07,30,16,05,700.00
2007,07,30,16,06,697.90
2007,07,30,16,07,696.00
2007,07,30,16,08,695.20
2007,07,30,16,09,691.40
2007,07,30,16,10,689.00
2007,07,30,16,11,687.20
2007,07,30,16,12,693.20
2007,07,30,16,13,686.40
2007,07,30,16,14,682.00
2007,07,30,16,15,680.00
2007,07,30,16,16,678.90
2007,07,30,16,17,675.00
2007,07,30,16,18,674.10
2007,07,30,16,19,671.30
2007,07,30,16,20,668.70
2007,07,30,16,21,666.60
2007,07,30,16,22,667.80
2007,07,30,16,23,664.00
2007,07,30,16,24,664.00
2007,07,30,16,25,663.70
2007,07,30,16,26,662.20
2007,07,30,16,27,660.00
2007,07,30,16,28,659.00
2007,07,30,16,29,655.70
2007,07,30,16,30,652.30
2007,07,30,16,31,650.10
2007,07,30,16,32,648.90
2007,07,30,16,33,646.20
2007,07,30,16,34,642.00
2007,07,30,16,35,639.10
2007,07,30,16,36,637.00
2007,07,30,16,37,635.40
2007,07,30,16,38,633.40
2007,07,30,16,39,633.00
2007,07,30,16,40,631.00
2007,07,30,16,41,628.60
2007,07,30,16,42,625.40
2007,07,30,16,43,623.20
2007,07,30,16,44,621.50
2007,07,30,16,45,618.90
2007,07,30,16,46,617.00
2007,07,30,16,47,615.50
2007,07,30,16,48,613.30
2007,07,30,16,49,609.80
2007,07,30,16,50,607.60
2007,07,30,16,51,605.70
2007,07,30,16,52,604.20
2007,07,30,16,53,602.00
2007,07,30,16,54,599.20
2007,07,30,16,55,598.00
2007,07,30,16,56,596.40
2007,07,30,16,57,594.30
2007,07,30,16,58,591.90
2007,07,30,16,59,591.00
2007,07,30,17,00,590.40
2007,07,30,17,01,587.10
2007,07,30,17,02,584.40
2007,07,30,17,03,582.60
2007,07,30,17,04,580.60
2007,07,30,17,05,578.20
2007,07,30,17,06,576.80
2007,07,30,17,07,573.00
2007,07,30,17,08,572.20
2007,07,30,17,09,567.70
2007,07,30,17,10,564.00
2007,07,30,17,11,563.40
2007,07,30,17,12,561.60
2007,07,30,17,13,557.80
2007,07,30,17,14,557.00
2007,07,30,17,15,553.80